Location: Penton Mewsey
(51.2167°N, 1.5167°W)
Time: 18:37:55
(UTC+00:00)

Landsat 7 - Pass Details

Date: 30 March 2020
Orbit: 701 x 703 km, 98.1° (Epoch: 02 June)

Event Time Altitude Azimuth Distance (km) Brightness Sun altitude
Exits shadow 20:51:09 46° 122° (ESE) 945 4.0 -20.3°
Maximum altitude 20:52:17 59° 70° (ENE) 811 3.9 -20.4°
Drops below altitude 10° 20:56:58 10° 352° (N) 2,183 7.0 -21.0°
Sets 20:59:16 0° 349° (N) 3,106 7.9 -21.3°
